Tracking 27122 objects as of 25-Mar-2023
HD Live streaming from Space Station
objects crossing your sky now

STARLINK-4318

Track STARLINK-4318 now!
10-day predictions
STARLINK-4318 is classified as:


NORAD ID: 53086
Int'l Code: 2022-077AV
Perigee: 569.6 km
Apogee: 570.7 km
Inclination: 97.7 °
Period: 95.9 minutes
Semi major axis: 6941 km
RCS: Unknown
Launch date: July 11, 2022
Source: United States (US)
Launch site: AIR FORCE WESTERN TEST RANGE (AFWTR)
Your satellite tracking list
Your tracking list is empty




NASA's NSSDC Master Catalog

Two Line Element Set (TLE):
1 53086U 22077AV  23083.48209679  .00001580  00000-0  12754-3 0  9997
2 53086  97.6539 265.7677 0000773 111.2208 248.9099 15.01266865 38704
Source of the keplerian elements: AFSPC